Retour au catalogue

STARLINK-6162

ActifCommunicationsVLEO
NORAD 57131·PAYLOAD·🇺🇸 United States

Lancé Jun 23, 2023 depuis Cape Canaveral Space Force Station

Loading…

Prochains Passages (prochaines 24 heures)

TLE

FraisSource: CelesTrak SupGP

Époque: Sep 15, 2026, 02:30 UTC

1 57131C 23090AG  26258.10465278 -.00006494  00000+0 -23521-3 0  2585
2 57131  43.0025 273.3601 0001340 302.0462 112.2618 15.27580449    17

Suivez STARLINK-6162 en temps réel avec AllMySat

Download on the App Store